,

(GMT )
Teruel

Tiempo Historia de LETL - Agosto, 2018

Change the Weather History Date:

Viernes, Agosto 10, 2018

  Actual Average Record
Temperature  
Temperatura media 68 ° F -  
Temperatura máxima 80 ° F - - ()
Temperatura mínima 57 ° F - - ()
Cooling Degree Days 4    
Growing Degree Days 18 (Base 50)    
Moisture  
Punto de rocío 53 ° F    
Average Humidity 59    
Maximum Humidity 83    
Minimum Humidity 45    
Precipitación  
Precipitación 0.00 pul - - ()
Presión al nivel del mar  
Presión al nivel del mar 30.28 pul    
Viento  
Velocidad del viento 11 mph ()    
Velocidad máxima del viento 20 mph    
Max Gust Speed -    
Visibilidad 6.2 Millas    
Eventos Lluvia    
T = Trace of Precipitation, MM = Missing Value Source: Averaged Metar Reports

Daily Weather History Graph

Daily Weather History Graph

Search for Another Location

Airport or City:

Astronomía

Aug. 10, 2018 Salida Puesta
Hora real 7:10 AM CEST 9:09 PM CEST
Crepúsculo civil 6:40 AM CEST 9:38 PM CEST
Crepúsculo náutico 6:04 AM CEST 10:14 PM CEST
Crepúsculo astronómico 5:25 AM CEST 10:53 PM CEST
Luna 5:47 AM CEST (8/10) 8:38 PM CEST (8/10)
Horas de luz 14h 57m
Horas de luz
13h 58m
Creciente menguante, 2% of the Moon is Illuminated
Ago 10
Creciente menguante
Ago 11
Nueva
Ago 18
Cuarto creciente
Ago 26
Luna llena
Sep 3
Cuarto menguante

Hourly Weather History & Observations

Hora (CEST) Temp. Índice de calor Punto de rocío Humedad Presión Visibilidad Wind Dir Velocidad del viento Velocidad de ráfagas Precip Eventos Condiciones
12:30 AM 59.0 ° F - 48.2 ° F 67% 30.24 pul 6.2 mi NNO 16.1 mph - N/A   Nubes dispersas
1:00 AM 59.0 ° F - 46.4 ° F 63% 30.24 pul 6.2 mi NNO 16.1 mph - N/A   Nubes dispersas
2:00 AM 59.0 ° F - 46.4 ° F 63% 30.27 pul 6.2 mi NNO 11.5 mph - N/A   Muy nublado
2:30 AM 59.0 ° F - 46.4 ° F 63% 30.27 pul 6.2 mi NNO 11.5 mph - N/A   Nubes dispersas
4:00 AM 57.2 ° F - 46.4 ° F 67% 30.27 pul 6.2 mi NNO 12.7 mph - N/A   Nublado
5:00 AM 57.2 ° F - 46.4 ° F 67% 30.27 pul 6.2 mi NNO 11.5 mph - N/A   Muy nublado
5:30 AM 57.2 ° F - 46.4 ° F 67% 30.27 pul 6.2 mi NNO 10.4 mph - N/A   Nublado
6:30 AM 57.2 ° F - 46.4 ° F 67% 30.27 pul - NNO 8.1 mph - N/A   Despejado
8:00 AM 57.2 ° F - 46.4 ° F 67% 30.30 pul 6.2 mi Norte 10.4 mph - N/A   Nubes dispersas
9:30 AM 60.8 ° F - 46.4 ° F 59% 30.30 pul 6.2 mi NNO 6.9 mph - N/A Lluvia Lluvia
10:00 AM 60.8 ° F - 46.4 ° F 59% 30.33 pul 6.2 mi NNO 4.6 mph - N/A   Parcialmente nublado
10:30 AM 64.4 ° F - 48.2 ° F 56% 30.30 pul 6.2 mi Norte 4.6 mph - N/A   Parcialmente nublado
11:30 AM 69.8 ° F - 55.4 ° F 60% 30.30 pul 6.2 mi SSE 16.1 mph - N/A   Muy nublado
12:00 PM 71.6 ° F - 57.2 ° F 60% 30.30 pul 6.2 mi SE 15.0 mph - N/A   Nubes dispersas
12:30 PM 71.6 ° F - 55.4 ° F 57% 30.30 pul 6.2 mi SSE 13.8 mph - N/A   Muy nublado
1:30 PM 77.0 ° F - 57.2 ° F 50% 30.30 pul 6.2 mi SE 11.5 mph - N/A   Parcialmente nublado
2:30 PM 73.4 ° F - 57.2 ° F 57% 30.30 pul - SE 11.5 mph - N/A   Despejado
3:00 PM 78.8 ° F - 57.2 ° F 47% 30.30 pul - SSE 12.7 mph - N/A   Despejado
4:00 PM 78.8 ° F - 57.2 ° F 47% 30.27 pul - ESE 13.8 mph - N/A   Despejado
4:30 PM 80.6 ° F 80.8 ° F 57.2 ° F 45% 30.27 pul - SSE 15.0 mph - N/A   Despejado
5:30 PM 78.8 ° F - 57.2 ° F 47% 30.24 pul - SE 18.4 mph - N/A   Despejado
6:00 PM 78.8 ° F - 57.2 ° F 47% 30.24 pul - SE 19.6 mph - N/A   Despejado
7:00 PM 78.8 ° F - 57.2 ° F 47% 30.24 pul 6.2 mi SE 17.3 mph - N/A   Desconocido
8:00 PM 77.0 ° F - 55.4 ° F 47% 30.24 pul 6.2 mi Sur 15.0 mph - N/A   Desconocido
8:30 PM 73.4 ° F - 59.0 ° F 61% 30.27 pul 6.2 mi SSE 17.3 mph - N/A   Desconocido
10:30 PM 68.0 ° F - 60.8 ° F 78% 30.30 pul 6.2 mi SSE 13.8 mph - N/A   Desconocido
11:00 PM 66.2 ° F - 60.8 ° F 83% 30.30 pul 6.2 mi SSE 10.4 mph - N/A   Desconocido